Weather Roundup
Issued by NWS Chicago, IL

Home | Current Version | Previous Version | Text Only | Print | Product List | Glossary Off
Versions: 1 2 3 4 5 6 7 8 9 10 11 12 13 14 15 16 17 18 19 20 21 22 23 24 25 26 27 28 29 30 31 32 33 34 35 36 37 38 39 40 41 42 43 44 45 46 47 48 49 50

000
NZUS59 KLOT 190806
HRRLOT

CHICAGO AREA WEATHER ROUNDUP
NATIONAL WEATHER SERVICE CHICAGO/ROMEOVILLE IL
300 AM CDT SAT APR 19 2014

NOTE: "FAIR" INDICATES FEW OR NO CLOUDS BELOW 12,000 FEET WITH NO
SIGNIFICANT WEATHER AND/OR OBSTRUCTIONS TO VISIBILITY.

* THESE STATIONS ARE NOT UNDER NWS QUALITY CONTROL. THEY ALSO MAY NOT
  REPORT WEATHER SUCH AS PRECIPITATION OR FOG.

ILZ005-006-012>014-019>023-190900-
NORTHEAST ILLINOIS

CITY           SKY/WX    TMP DP  RH WIND       PRES   REMARKS
OHARE          CLEAR     38  27  64 NE7       30.36S
MIDWAY         PTCLDY    39  30  70 NE9       30.35F
AURORA         CLEAR     36  26  67 E7        30.35S
LANSING*       CLEAR     36  30  77 NE6       30.34F
WAUKEGAN       CLEAR     34  28  79 NE7       30.37S WCI  28
DUPAGE AIRPORT CLEAR     37  28  70 NE9       30.35R
WHEELING       CLEAR     38  29  70 NE5       30.38S
KANKAKEE*      CLEAR     34  28  79 NE7       30.34F WCI  28
MORRIS*        CLEAR     36  25  65 NE3       30.34S
LEWIS AIRPORT* CLEAR     37  27  69 E5        30.35S
NORTHERLY IS     N/A     39  32  76 NE12        N/A
$$

WIZ051-052-058>065-066-070>072-190900-
SOUTHEAST WISCONSIN

CITY           SKY/WX    TMP DP  RH WIND       PRES   REMARKS
MILWAUKEE      PTCLDY    35  28  75 NE10      30.40S WCI  27
KENOSHA*       CLEAR     34  27  75 E9        30.38S WCI  27
RACINE*        CLEAR     36  27  69 E9        30.40S
BURLINGTON     CLEAR     32  27  80 E3        30.38S
WAUKESHA       CLEAR     32  27  80 NE8       30.39R WCI  25
WEST BEND      PTCLDY    32  27  80 E7        30.40S WCI  26
$$

INZ001>003-010>013-019-020-190900-
NORTHWEST INDIANA

CITY           SKY/WX    TMP DP  RH WIND       PRES   REMARKS
GARY*          CLEAR     38  32  78 NE6       30.36S
MICHIGAN CITY* NOT AVBL
RENSSELAER*    NOT AVBL
VALPARAISO     CLEAR     32  26  78 NE3       30.34F
$$

LMZ740>746-190900-
SOUTHERN LAKE MICHIGAN

STATION/POSITION TIME  SKY/WX   TEMP WIND        PRES    VSBY
                                AIR  DIR/SP/G
                 (UTC)          (F)  (DEG/KT/KT) (MB)    (MI)
HARRISON CRIB    0800            38   50/ 12/ 15   N/A
BURNHAM HARBOR   0800            39   40/ 11/ 14   N/A
CALUMET HARBOR   0800            38   40/  8/ 12 1028.4F
BURNS HARBOR     NOT AVBL
MICHIGAN CITY    0800            39   30/  8/  9   N/A
$$

ABBREVIATIONS USED IN REMARKS
   TC - TEMPERATURE IN CELSIUS
  WCI - WIND CHILL INDEX
   HX - HEAT INDEX
  VSB - VISIBILITY
$$



USA.gov is the U.S. government's official web portal to all federal, state and local government web resources and services.